SB KEPS @ AMSAT $ORB13038.N 2Line Orbital Elements 13038.AMSAT
HR AMSAT ORBITAL ELEMENTS FOR AMATEUR SATELLITES IN NASA FORMAT Send SUBSCRIBE KEPS/UNSUBSCRIBE KEPS to [email protected] only BID: ORB13038.N
DECODE 2-LINE ELSETS WITH THE FOLLOWING KEY: 1 AAAAAU 00 0 0 BBBBB.BBBBBBBB .CCCCCCCC 00000-0 00000-0 0 DDDZ 2 AAAAA EEE.EEEE FFF.FFFF GGGGGGG HHH.HHHH III.IIII JJ.JJJJJJJJKKKKKZ KEY: A-CATALOGNUM B-EPOCHTIME C-DECAY D-ELSETNUM E-INCLINATION F-RAAN G-ECCENTRICITY H-ARGPERIGEE I-MNANOM J-MNMOTION K-ORBITNUM Z-CHECKSUM
TO ALL RADIO AMATEURS BT
AO-07 1 07530U 74089B 13037.56641392 -.00000069 00000-0 -15989-3 0 6004 2 07530 101.4222 031.8656 0011918 181.8850 325.6435 12.53594632749412 FO-29 1 24278U 96046B 13038.41973365 -.00000041 00000-0 -82386-5 0 429 2 24278 098.5757 114.2483 0350917 140.2506 222.4918 13.52995841813762 SO-33 1 25509U 98061B 13037.56224296 .00000350 00000-0 58761-4 0 4270 2 25509 031.4320 087.1305 0351561 094.4849 054.8766 14.28957918746196 RS-22 1 27939U 03042A 13038.56206531 .00000442 00000-0 92218-4 0 1451 2 27939 097.7983 233.1724 0012395 237.4225 122.5782 14.64313854500328 VO-52 1 28650U 05017B 13038.01963980 .00000837 00000-0 10720-3 0 3372 2 28650 097.5772 063.2726 0026086 351.9672 008.1157 14.83553269419788 HO-68 1 36122U 09072B 13038.83792173 -.00000044 00000-0 00000 0 0 2639 2 36122 100.3256 099.0683 0007294 292.9730 067.0604 13.16301851151393 UO-11 1 14781U 84021B 13038.23582560 .00000400 00000-0 58777-4 0 962 2 14781 097.9205 101.3100 0008398 359.7914 000.3293 14.80747414554705 AO-16 1 20439U 90005D 13037.84988753 .00000070 00000-0 41870-4 0 6693 2 20439 098.4600 340.9895 0011115 178.6630 215.1778 14.32136533203585 LO-19 1 20442U 90005G 13037.98247944 .00000073 00000-0 42570-4 0 6020 2 20442 098.4281 343.3266 0012258 169.9426 250.2000 14.32350133203793 AO-27 1 22825U 93061C 13038.85430226 .00000067 00000-0 43450-4 0 3080 2 22825 098.6057 344.3413 0007435 312.3791 081.3484 14.29531685 10152 IO-26 1 22826U 93061D 13037.97425476 .00000069 00000-0 43900-4 0 645 2 22826 098.5997 343.7868 0007904 307.7663 108.8662 14.29812207 10154 GO-32 1 25397U 98043D 13038.12732795 -.00000040 00000-0 66972-6 0 9936 2 25397 098.3953 011.6587 0000811 009.2231 350.8966 14.23320339757444 NO-44 1 26931U 01043C 13037.99833030 -.00000032 00000-0 19602-4 0 2539 2 26931 067.0502 235.1147 0004926 272.9497 087.1055 14.29885080592813 SO-50 1 27607U 02058C 13037.80628584 .00000259 00000-0 60817-4 0 9860 2 27607 064.5588 301.0150 0062690 199.0184 160.8552 14.72755405544511 CO-55 1 27844U 03031E 13038.66099226 .00000150 00000-0 88964-4 0 5741 2 27844 098.7033 049.6134 0008729 260.6526 164.3762 14.21156515498334 CO-57 1 27848U 03031J 13038.00073043 .00000125 00000-0 78215-4 0 5214 2 27848 098.7117 048.4077 0008597 269.2256 144.1264 14.20890105498176 AO-51 1 28375U 04025K 13038.46972944 .00000137 00000-0 53454-4 0 4807 2 28375 098.1817 359.2537 0084563 048.6470 312.1942 14.41064223452651 CP3 1 31129U 07012N 13038.69272251 .00000341 00000-0 86638-4 0 3857 2 31129 097.8912 038.7106 0101436 110.2542 250.9600 14.53449645308186 CO-65 1 32785U 08021C 13038.21235823 .00000883 00000-0 11333-3 0 5468 2 32785 097.7690 099.3705 0014375 019.2608 013.2022 14.83571012258607 PRISM 1 33493U 09002B 13038.76220305 .00002001 00000-0 23957-3 0 5148 2 33493 098.1995 191.6321 0017416 252.6627 107.2685 14.85230316218707 SOHLA-1 1 33496U 09002E 13038.90809799 .00000258 00000-0 51103-4 0 9632 2 33496 098.1209 155.3893 0006608 024.5538 123.7588 14.70182479216878 SO-67 1 35870U 09049F 13038.90662128 .00003292 00000-0 13126-3 0 7725 2 35870 097.2079 072.2981 0003596 067.0469 057.7626 15.25865973188532 TISAT-1 1 36799U 10035E 13038.78046274 .00001171 00000-0 15124-3 0 7866 2 36799 098.0431 122.7212 0015508 125.7375 234.5270 14.82833510139390 STUDSAT 1 36801U 10035G 13037.27371032 .00003562 00000-0 40504-3 0 5837 2 36801 098.0579 123.2758 0012681 113.6624 246.5929 14.86840287139274 FO-69 1 37227U 0 13038.42836185 .00000414 00000-0 66031-4 0 00588 2 37227 071.9705 152.7470 0018460 244.0646 115.8598 14.77364497009742 FO-70 1 37380U 0 13038.33870440 .00000419 00000-0 67050-4 0 00600 2 37380 071.9743 153.8051 0018952 241.3116 118.6150 14.77106771009800 ALMASAT-1 1 38078U 12006B 13038.71777022 .00013499 00000-0 34485-3 0 9839 2 38078 069.4838 139.9762 0722766 311.7761 042.3703 14.18735940 50847 XATCOBEO 1 38082U 12006F 13038.67859267 .00035777 32750-5 76890-3 0 9023 2 38082 069.4862 127.0249 0643617 304.6155 049.5931 14.39356414 51191 NOAA-10 1 16969U 86073A 13038.17197361 .00000039 00000-0 33374-4 0 2376 2 16969 098.5592 068.7614 0011190 264.3376 124.6805 14.27613455373395 NOAA-11 1 19531U 88089A 13038.20085880 .00000011 00000-0 28036-4 0 2356 2 19531 098.7175 124.2676 0010165 271.5209 141.0330 14.15001671257748 NOAA-12 1 21263U 91032A 13038.53280520 .00000019 00000-0 26953-4 0 7121 2 21263 098.7114 064.8706 0012934 235.9229 124.0724 14.25545572130080 MET-3/5 1 21655U 91056A 13038.49733702 .00000445 00000-0 11232-2 0 6148 2 21655 082.5605 345.9261 0014593 094.4139 265.8651 13.17039456 32860 MET-2/21 1 22782U 93055A 13038.54123713 -.00000000 00000-0 -13737-4 0 6583 2 22782 082.5484 205.7674 0022254 209.9457 210.0374 13.83698324981716 OKEAN-4 1 23317U 94066A 13038.88884574 .00000775 00000-0 89453-4 0 1330 2 23317 082.5403 170.7729 0019895 296.1687 063.7482 14.84238023989768 NOAA-14 1 23455U 94089A 13038.48793332 .00000027 00000-0 37469-4 0 1942 2 23455 098.8122 124.8594 0009901 011.6600 348.4801 14.13892270934042 NOAA-15 1 25338U 98030A 13038.39657378 .00000097 00000-0 59868-4 0 6076 2 25338 098.7134 029.3746 0011207 141.5111 218.6877 14.25175849766353 RESURS 1 25394U 98043A 13038.48659571 -.00000039 00000-0 10169-5 0 3008 2 25394 098.3481 020.6429 0000290 230.4028 275.8480 14.24319924757890 FENGYUN1 1 25730U 99025A 13038.50441808 .00002217 00000-0 12742-2 0 8020 2 25730 098.8680 359.7167 0024686 050.5920 062.0110 14.10144642707767 OKEAN-0 1 25860U 99039A 13038.51199926 .00000340 00000-0 58623-4 0 8622 2 25860 097.9742 002.8398 0001438 133.1367 338.5501 14.74472531729248 NOAA-16 1 26536U 00055A 13038.37550022 -.00000062 00000-0 -85591-5 0 850 2 26536 099.0623 089.7456 0011001 138.5351 221.6645 14.12836128638246 NOAA-17 1 27453U 02032A 13038.25827035 -.00000071 00000-0 -13199-4 0 151 2 27453 098.3198 059.1905 0011726 182.2989 177.8139 14.24536805552226 NOAA-18 1 28654U 05018A 13038.30004053 .00000409 00000-0 24958-3 0 4987 2 28654 099.0804 004.7636 0013907 211.4809 148.5538 14.11770214397739 NOAA-19 1 33591U 09005A 13038.36086083 -.00000073 00000-0 -16003-4 0 6830 2 33591 098.8896 341.5330 0014971 077.0444 283.2409 14.11454689206186 HUBBLE 1 20580U 90037B 13038.40465337 .00001287 00000-0 80409-4 0 1705 2 20580 028.4696 043.4001 0003234 052.3866 307.7017 15.03266818 50141 ISS 1 25544U 98067A 13038.93614072 .00010588 00000-0 17740-3 0 1746 2 25544 051.6490 030.3645 0012358 248.5836 150.6387 15.52368154814635 CO-58 1 28895U 05043F 13037.61663173 .00000454 00000-0 10147-3 0 3983 2 28895 097.8852 259.1977 0018435 130.9886 229.2924 14.60955807387888 FALCON 1 30776U 07006E 13038.10236435 .00003623 00000-0 22385-3 0 5459 2 30776 035.4307 279.8853 0002805 266.1038 218.5246 15.09514188325741 MAST 1 31126U 07012K 13037.70288317 .00000293 00000-0 74750-4 0 6777 2 31126 097.8763 041.1186 0094430 099.5252 261.6620 14.54424692308351 CAPE1 1 31130U 07012P 13037.99737925 .00000320 00000-0 82160-4 0 6895 2 31130 097.8881 037.7143 0101769 113.2160 247.9804 14.53291150307874 COMPASS 1 32787U 08021E 13038.18404023 .00001427 00000-0 17336-3 0 5370 2 32787 097.7696 100.0622 0014754 016.8329 016.7462 14.84965488258675 AAUSAT2 1 32788U 08021F 13038.16811197 .00001627 00000-0 19484-3 0 5281 2 32788 097.7701 100.5764 0014266 016.5818 041.8591 14.85376459258704 DO-64 1 32789U 08021G 13037.80154071 .00002962 00000-0 33167-3 0 5516 2 32789 097.7852 103.2783 0013875 012.6997 095.7086 14.87558126258738 CO-66 1 32791U 08021J 13038.70523236 .00001123 00000-0 14028-3 0 5256 2 32791 097.7699 100.0887 0015179 015.5025 130.6169 14.84206340258661 RS-30 1 32953U 08025A 13038.71705421 .00000010 00000-0 00000 0 0 5737 2 32953 082.5040 148.6960 0019534 152.5654 207.6466 12.43031205213825 METEOR-M 1 35865U 09049A 13038.53564654 -.00000044 00000-0 -20876-6 0 1993 2 35865 098.6214 094.0343 0003286 085.7604 274.3950 14.21879334176041 RS-38 1 35869U 09049E 13038.66098288 .00000008 00000-0 23151-4 0 1665 2 35869 098.6166 094.1064 0005457 086.8424 273.3378 14.22111916176089 JUGNU 1 37839U 11058B 13036.00862693 .00000620 00000-0 19019-3 0 3267 2 37839 019.9625 027.7096 0018428 267.7051 092.1140 14.12125238 68196 SRMSAT 1 37841U 11058D 13037.58368656 .00000264 00000-0 00000 0 0 3275 2 37841 019.9711 027.6398 0012125 242.9394 116.9882 14.10198093 68311 RAX-2 1 37853U 11061D 13038.88400595 .00002093 00000-0 16889-3 0 4207 2 37853 101.7115 192.7634 0239131 037.6357 324.1310 14.82318508 69285 AUBIESAT 1 37854U 11061E 13038.89770775 .00002259 00000-0 17814-3 0 4189 2 37854 101.7149 193.3969 0239455 036.5585 325.1691 14.82912249 69297 HRBE 1 37855U 11061F 13038.20092599 .00002210 00000-0 17535-3 0 4138 2 37855 101.7149 192.2276 0240177 038.8480 322.9711 14.82641826 69185 RS-39 1 38051U 11062C 13038.80415978 .00010145 00000-0 36557-3 0 1503 2 38051 051.6369 113.2461 0012470 156.6072 307.5229 15.29076397 57962 E-STAR 1 38079U 12006C 13038.65213194 .00029744 31778-5 66156-3 0 8748 2 38079 069.4836 130.1302 0667672 306.4372 047.7057 14.33650099 51101 GOLIAT 1 38085U 12006J 13038.35678094 .00024390 31233-5 54710-3 0 8118 2 38085 069.4885 132.1405 0674916 307.4922 046.6632 14.32073562 51020 HORYU-2 1 38340U 12025D 13037.88943959 .00000960 00000-0 16619-3 0 3598 2 38340 098.2018 344.5550 0011943 309.6610 050.3556 14.70598151 38968 RS-40 1 38736U 12041D 13038.08150391 .00000010 00000-0 00000 0 0 1810 2 38736 082.4728 236.2549 0018020 253.1356 106.7750 12.42650453 24089 PROITERES 1 38756U 12047B 13038.80995429 .00000339 00000-0 59512-4 0 4866 2 38756 098.2667 113.4250 0012999 154.1621 206.0225 14.74068720 22331 AENEAS 1 38760U 0 13010.30862094 .00004933 00000-0 45118-3 0 00386 2 38760 064.6736 037.6222 0216021 256.7016 100.9927 14.80037176005582 CSSWE-D 1 38761U 0 13010.31251606 .00004126 00000-0 38000-3 0 00352 2 38761 064.6743 037.6425 0217594 256.6983 100.9785 14.79845475005606 CXBN-E 1 38762U 0 13010.30523402 .00005383 00000-0 48699-3 0 00360 2 38762 064.6804 037.6257 0218357 256.1531 101.5196 14.79997447005677 OBJECT F 1 38763U 0 13010.30916126 .00003917 00000-0 36085-3 0 00356 2 38763 064.6735 037.6208 0218061 256.7365 100.9342 14.79862223005613 CINEMA-G 1 38764U 0 13010.30690144 .00004197 00000-0 38547-3 0 00341 2 38764 064.6741 037.6060 0217613 256.7942 100.8813 14.79914111005571 CP5 1 38765U 0 13010.36660122 .00005184 00000-0 47138-3 0 00366 2 38765 064.6738 037.3618 0216618 256.5143 101.1776 14.80096794005582 RAIKO 1 38852U 98067CN 13038.78392809 .00036165 00000-0 43472-3 0 1364 2 38852 051.6464 027.1655 0012655 235.6713 124.3078 15.60407172 19576 FITSAT 1 1 38853U 98067CP 13038.39197911 .00045968 00000-0 51284-3 0 1348 2 38853 051.6463 028.3077 0008797 257.9371 102.0633 15.62281612 19577 TechEdSat 1 38854U 98067CQ 13038.22724450 .00078477 00000-0 71668-3 0 1513 2 38854 051.6437 027.1944 0006760 251.0066 109.0197 15.67127980 19577 F 1 1 38855U 98067CR 13038.18262511 .00075103 00000-0 70236-3 0 1539 2 38855 051.6438 027.6228 0006973 271.2179 088.7995 15.66555528 19452 WeWish 1 38856U 98067CS 13038.18814099 .00230044 00000-0 11608-2 0 1729 2 38856 051.6382 023.1301 0002570 234.3259 125.7490 15.80405143 19514 /EX